Location: Emory University Observatory
(33.7903°N, 84.3267°W)
Time: 23:32:30
(UTC-05:00)

Envisat - Pass Details

Date: 09 October 2017
Orbit: 764 x 766 km, 98.2° (Epoch: 13 December)

Event Time Altitude Azimuth Distance (km) Brightness Sun altitude
Exits shadow 20:04:31 11° 56° (NE) 2,260 4.9 -12.0°
Drops below altitude 10° 20:05:07 10° 49° (NE) 2,306 5.0 -12.1°
Sets 20:09:24 0° 14° (NNE) 3,238 6.1 -13.0°
